[[{"header":{"parameterUnit":"m.s-1","parameterCategory":2,"la1":30.2991,"la2":30.254,"lo1":-89.0895,"lo2":-89.0444,"dy":0.0017,"dx":0.0017,"nx":28,"ny":28,"refTime":"2024-08-06T03:00:00:Z","depth":"0","parameterNumber":2,"parameterNumberName":"U-component_of_CURRENTS"},"data":[0,0,0,0,0,0,0,0,0,0,0,0,0,0,0,0,0,0,0,0,0,0,0,0,0,0,0,0,0,0,0,0,0,0,0,0,0,0,0,0,0,0,0,0,0,0,0,0,0,0,0,0,0,0,0,0,0,0,0.2816,0.2814,0,0.2689,0.2688,0.2686,0.2634,0.2634,0.2634,0.2635,0.2597,0.2596,0.2594,0,0,0,0,0,0,0,0,0,0,0,0,0,0.2949,0.2948,0.2816,0.2814,0.2813,0.2689,0.2688,0.2686,0.2634,0.2634,0.2634,0.2635,0.2597,0.2596,0.2594,0,0,0,0,0,0,0,0,0,0,0,0,0,0.2864,0.2947,0.2816,0.2772,0.2767,0.269,0.2688,0.2685,0.2634,0.2634,0.2634,0.2635,0.2598,0.2596,0.2594,0.2574,0,0,0.2588,0.2587,0,0,0,0,0,0,0,0,0.2869,0.2859,0.278,0.2775,0.2769,0.2678,0.2721,0.2653,0.2633,0.2684,0.2635,0.2635,0.2632,0.2627,0.2601,0.2572,0.2571,0.2588,0.2587,0.2586,0.2586,0,0,0,0,0,0,0,0.2875,0.2864,0.2765,0.2778,0.2772,0.2737,0.2726,0.2707,0.2659,0.268,0.2676,0.2662,0.263,0.2603,0.26,0.257,0.2588,0.2586,0.2585,0.2585,0.253,0.253,0,0,0,0,0,0,0.2894,0.287,0.277,0.2762,0.2821,0.2734,0.2722,0.2707,0.2657,0.2649,0.2661,0.266,0.2606,0.2602,0.2599,0.2562,0.2586,0.2584,0.2583,0.2531,0.253,0.253,0,0,0,0,0,0,0.2897,0.2886,0.2775,0.2813,0.2797,0.2732,0.2715,0.2704,0.268,0.2642,0.2636,0.265,0.2606,0.2601,0.2585,0.2561,0.2584,0.2582,0.2531,0.253,0.253,0.2496,0,0,0,0,0,0,0.2901,0.2888,0.2879,0.2814,0.2795,0.2729,0.2714,0.2701,0.2671,0.2668,0.2631,0.2627,0.2606,0.2588,0.2583,0.2559,0.258,0.2531,0.2531,0.253,0.2497,0.2494,0.2491,0,0,0,0,0,0.2906,0.2881,0.2879,0.2867,0.2787,0.2729,0.2715,0.2671,0.2671,0.2654,0.2636,0.2628,0.2581,0.2586,0.2581,0.2555,0.2532,0.2531,0.253,0.2498,0.2495,0.2491,0,0,0,0,0,0,0.2913,0.2872,0.2868,0.2827,0.2788,0.272,0.2691,0.2676,0.2644,0.2647,0.2624,0.2618,0.2594,0.2587,0.2594,0.254,0.2555,0.2553,0.2533,0.2529,0.2526,0.2497,0.2579,0,0,0,0,0,0.2919,0.2901,0.2854,0.2821,0.2804,0.2756,0.2727,0.2703,0.2668,0.2653,0.2628,0.2607,0.2584,0.2569,0.255,0.2521,0.2511,0.2503,0.25,0.2498,0.2472,0.2454,0.2447,0.2528,0.2528,0.2528,0,0,0.2906,0.2886,0.287,0.2824,0.2789,0.2742,0.2739,0.2696,0.2659,0.2657,0.2606,0.26,0.2578,0.2541,0.2529,0.2531,0.2472,0.2497,0.2495,0.2469,0.2452,0.2444,0.2437,0.2527,0.2527,0.2527,0,0,0.287,0.2862,0.2834,0.2806,0.2766,0.2735,0.273,0.2674,0.2653,0.2614,0.2603,0.258,0.2546,0.2511,0.2494,0.2467,0.2463,0.2473,0.2422,0.2406,0.2399,0.2392,0.2375,0.2367,0.2464,0.2464,0.2464,0,0.2859,0.2808,0.2813,0.2778,0.2737,0.2734,0.2678,0.2658,0.2606,0.2577,0.2599,0.2523,0.252,0.2451,0.2445,0.2455,0.2451,0.2435,0.24,0.2394,0.2387,0.2371,0.2363,0.2463,0.2463,0.2463,0.2463,0,0.2795,0.2755,0.2731,0.269,0.2661,0.2609,0.2588,0.2562,0.255,0.2522,0.247,0.2461,0.2412,0.2414,0.242,0.2366,0.238,0.2405,0.2405,0.2377,0.2362,0.2354,0.246,0.2461,0.2461,0.2462,0,0,0.2741,0.2694,0.2681,0.2636,0.2604,0.2558,0.2523,0.2459,0.2408,0.24,0.2326,0.2308,0.2316,0.2299,0.2307,0.2288,0.2258,0.2327,0.2327,0.2302,0.2222,0.2076,0.2053,0.2284,0.2283,0.2281,0.2232,0,0.267,0.2583,0.2585,0.2483,0.2418,0.2419,0.2376,0.2341,0.2315,0.2258,0.2263,0.2214,0.2273,0.2249,0.2245,0.2259,0.2234,0.2269,0.2259,0.2258,0.2124,0.2037,0.1941,0.1873,0.2224,0.2222,0.2222,0,0.2572,0.2531,0.2425,0.2347,0.2322,0.2275,0.2185,0.2153,0.2114,0.2107,0.2083,0.2094,0.2076,0.2133,0.2133,0.2159,0.2179,0.219,0.2189,0.2049,0.2093,0.1958,0.1845,0.1813,0.2209,0.221,0.2211,0,0.2473,0.2394,0.2302,0.2275,0.2212,0.2164,0.2133,0.2087,0.2037,0.2011,0.1965,0.1978,0.196,0.2004,0.2044,0.2097,0.2026,0.211,0.1984,0.1977,0.1883,0.1867,0.1722,0.2075,0.2075,0.2075,0.2075,0,0.2354,0.2279,0.2246,0.2188,0.2086,0.208,0.1969,0.1956,0.1902,0.1838,0.1885,0.1829,0.1926,0.1906,0.1984,0.1929,0.1985,0.1929,0.1929,0.1868,0.1852,0.1812,0.1823,0.2074,0.2074,0.2074,0.2075,0,0.2253,0.222,0.2118,0.2054,0.2027,0.1961,0.188,0.1803,0.1783,0.1698,0.1689,0.1697,0.1688,0.173,0.1775,0.1801,0.173,0.1763,0.1671,0.1658,0.1509,0.1522,0.1325,0.1298,0.1627,0.1622,0.1619,0,0.2193,0.213,0.2037,0.1977,0.1944,0.1856,0.1789,0.1752,0.1688,0.1619,0.1572,0.1516,0.1487,0.1452,0.1484,0.1504,0.1533,0.14,0.1463,0.1419,0.144,0.1454,0.1451,0.1356,0.135,0.1346,0.1342,0,0.2111,0.2082,0.2017,0.1896,0.1806,0.171,0.1625,0.1559,0.1526,0.1456,0.1388,0.1349,0.1281,0.1238,0.1197,0.1223,0.1305,0.1303,0.1293,0.1197,0.117,0.1172,0.1487,0.1302,0.1306,0.1309,0.1311,0.1313,0.2072,0.2018,0.1929,0.1814,0.1713,0.1592,0.1506,0.1437,0.1341,0.1246,0.1253,0.1158,0.1082,0.1012,0.1007,0.0898,0.1,0.0907,0.0927,0.0947,0.0882,0.1069,0.0856,0.0858,0.0859,0.086,0.0861,0,0.2012,0.195,0.1851,0.1706,0.1587,0.1544,0.1412,0.1332,0.1237,0.1146,0.108,0.092,0.0812,0.0751,0.0628,0.0569,0.0625,0.0544,0.0593,0.0617,0.0807,0.0756,0.0466,0.0466,0.0466,0.0466,0.0466,0.0466,0.1968,0.1869,0.1818,0.1625,0.1525,0.1358,0.128,0.1179,0.1094,0.092,0.079,0.0731,0.0621,0.0468,0.0346,0.0334,0.0369,0.0285,0.0358,0.0548,0.0587,0.0625,0.0578,0.0255,0.0255,0.0162,0.0161,0.016]},{"header":{"parameterUnit":"m.s-1","parameterCategory":2,"la1":30.2991,"la2":30.254,"lo1":-89.0895,"lo2":-89.0444,"dy":0.0017,"dx":0.0017,"nx":28,"ny":28,"refTime":"2024-08-06T03:00:00:Z","depth":"0","parameterNumber":3,"parameterNumberName":"V-component_of_CURRENTS"},"data":[0,0,0,0,0,0,0,0,0,0,0,0,0,0,0,0,0,0,0,0,0,0,0,0,0,0,0,0,0,0,0,0,0,0,0,0,0,0,0,0,0,0,0,0,0,0,0,0,0,0,0,0,0,0,0,0,0,0,-0.1974,-0.1971,0,-0.1747,-0.1745,-0.1742,-0.1632,-0.1632,-0.1632,-0.1632,-0.1559,-0.1558,-0.1556,0,0,0,0,0,0,0,0,0,0,0,0,0,-0.2263,-0.2259,-0.1974,-0.1971,-0.1968,-0.1747,-0.1745,-0.1742,-0.1632,-0.1632,-0.1632,-0.1632,-0.156,-0.1558,-0.1556,0,0,0,0,0,0,0,0,0,0,0,0,0,-0.21,-0.2258,-0.1975,-0.1885,-0.1874,-0.1748,-0.1744,-0.1741,-0.1632,-0.1632,-0.1632,-0.1632,-0.1561,-0.1558,-0.1556,-0.1545,0,0,-0.1548,-0.1546,0,0,0,0,0,0,0,0,-0.2109,-0.209,-0.1901,-0.1891,-0.1879,-0.1715,-0.1819,-0.1682,-0.1633,-0.1727,-0.1632,-0.1632,-0.1625,-0.1616,-0.1576,-0.1542,-0.1538,-0.1547,-0.1546,-0.1545,-0.1544,0,0,0,0,0,0,0,-0.2121,-0.2099,-0.1887,-0.1898,-0.1884,-0.1839,-0.1816,-0.1792,-0.1685,-0.1719,-0.171,-0.168,-0.162,-0.1579,-0.1574,-0.1537,-0.1547,-0.1545,-0.1543,-0.1542,-0.1515,-0.1516,0,0,0,0,0,0,-0.2146,-0.2109,-0.1894,-0.188,-0.1993,-0.1834,-0.1808,-0.177,-0.1682,-0.1666,-0.1681,-0.1676,-0.1583,-0.1577,-0.1571,-0.1552,-0.1545,-0.1542,-0.1541,-0.1514,-0.1515,-0.1516,0,0,0,0,0,0,-0.2153,-0.2128,-0.1903,-0.1988,-0.1956,-0.1829,-0.1787,-0.1766,-0.1727,-0.165,-0.1638,-0.1664,-0.1583,-0.1575,-0.1562,-0.1549,-0.1541,-0.1539,-0.1513,-0.1514,-0.1516,-0.1517,0,0,0,0,0,0,-0.2162,-0.2132,-0.2126,-0.1989,-0.1952,-0.183,-0.1786,-0.1762,-0.1708,-0.1699,-0.1632,-0.1624,-0.1582,-0.1567,-0.156,-0.1546,-0.1536,-0.1512,-0.1514,-0.1515,-0.1515,-0.1518,-0.152,0,0,0,0,0,-0.2173,-0.2155,-0.2127,-0.2101,-0.1943,-0.183,-0.1807,-0.1718,-0.1708,-0.1685,-0.1655,-0.1626,-0.1572,-0.1565,-0.1557,-0.1541,-0.1511,-0.1513,-0.1515,-0.1515,-0.1517,-0.152,0,0,0,0,0,0,-0.2265,-0.2137,-0.2104,-0.2046,-0.1951,-0.181,-0.1782,-0.173,-0.1683,-0.1691,-0.1635,-0.1625,-0.1607,-0.1589,-0.1584,-0.1544,-0.1538,-0.1538,-0.154,-0.1543,-0.1545,-0.1504,-0.1534,0,0,0,0,0,-0.2287,-0.225,-0.2115,-0.2074,-0.203,-0.1916,-0.1866,-0.1804,-0.1735,-0.1711,-0.1665,-0.1634,-0.1607,-0.1589,-0.1562,-0.1543,-0.1441,-0.1532,-0.1534,-0.1536,-0.1501,-0.1351,-0.1333,-0.1522,-0.1522,-0.1522,0,0,-0.2304,-0.2239,-0.2211,-0.2094,-0.2017,-0.1925,-0.1886,-0.181,-0.1746,-0.1718,-0.1654,-0.1643,-0.1608,-0.1576,-0.1567,-0.1558,-0.1429,-0.1538,-0.1539,-0.1503,-0.135,-0.1331,-0.1313,-0.1524,-0.1523,-0.1523,0,0,-0.2298,-0.227,-0.2215,-0.2142,-0.2033,-0.196,-0.1945,-0.1817,-0.178,-0.1722,-0.1693,-0.1673,-0.1625,-0.1579,-0.1557,-0.1561,-0.145,-0.1573,-0.1536,-0.1391,-0.1372,-0.1355,-0.1183,-0.115,-0.1567,-0.1567,-0.1567,0,-0.2314,-0.2218,-0.2184,-0.2104,-0.2028,-0.1977,-0.1875,-0.1836,-0.1727,-0.1691,-0.171,-0.1614,-0.161,-0.1535,-0.1547,-0.1558,-0.1446,-0.1525,-0.1386,-0.1367,-0.1348,-0.1177,-0.1141,-0.1567,-0.1567,-0.1567,-0.1567,0,-0.2231,-0.2163,-0.213,-0.201,-0.195,-0.1861,-0.1787,-0.1749,-0.1721,-0.1662,-0.1605,-0.1589,-0.1513,-0.1537,-0.1544,-0.1431,-0.1382,-0.1406,-0.1365,-0.1328,-0.1152,-0.1113,-0.1567,-0.1567,-0.1567,-0.1567,0,0,-0.2169,-0.2081,-0.2053,-0.1979,-0.188,-0.1797,-0.175,-0.1638,-0.1564,-0.1548,-0.1423,-0.1448,-0.1439,-0.1415,-0.1422,-0.1332,-0.1137,-0.132,-0.1312,-0.1122,-0.0767,-0.0833,-0.0797,-0.1124,-0.1118,-0.1113,-0.0688,0,-0.207,-0.1926,-0.1908,-0.1754,-0.1651,-0.1626,-0.1561,-0.1498,-0.1454,-0.1347,-0.1362,-0.1267,-0.1393,-0.1335,-0.128,-0.1159,-0.1038,-0.1246,-0.0855,-0.0842,-0.0883,-0.0757,-0.0804,-0.0439,-0.065,-0.0644,-0.0639,0,-0.1919,-0.1848,-0.1694,-0.1581,-0.1533,-0.1458,-0.132,-0.1262,-0.118,-0.1146,-0.1103,-0.1085,-0.0987,-0.1082,-0.0851,-0.097,-0.0863,-0.0787,-0.0768,-0.0795,-0.0838,-0.0517,-0.036,-0.0392,-0.0579,-0.0584,-0.0588,0,-0.18,-0.1666,-0.1546,-0.1497,-0.1386,-0.1323,-0.1266,-0.1187,-0.1105,-0.0991,-0.089,-0.0823,-0.0703,-0.061,-0.0549,-0.0638,-0.0256,-0.0342,-0.0288,-0.0289,-0.0235,-0.0244,-0.0038,-0.0122,-0.0123,-0.0124,-0.0125,0,-0.1645,-0.1536,-0.1481,-0.1395,-0.1244,-0.1218,-0.1053,-0.1008,-0.0891,-0.0743,-0.0772,-0.061,-0.0572,-0.0406,-0.0389,-0.0215,-0.0114,-0.0217,-0.0171,-0.0243,-0.0258,-0.0214,-0.025,-0.0108,-0.0112,-0.0115,-0.0117,0,-0.1511,-0.1476,-0.132,-0.1212,-0.1174,-0.1064,-0.0926,-0.0806,-0.0733,-0.0522,-0.0463,-0.0339,-0.0145,-0.0121,0.0109,0.0045,0.0189,0.022,0.0126,0.0148,0.0082,0.0045,0.0362,0.0373,0.0391,0.0392,0.0393,0,-0.1429,-0.1337,-0.119,-0.1095,-0.1038,-0.0899,-0.0791,-0.072,-0.0592,-0.0351,-0.0216,0.0004,0.0137,0.0385,0.0342,0.0426,0.035,0.0434,0.0206,0.0129,0.0128,0.0088,0.007,0.0321,0.0321,0.0322,0.0322,0,-0.1267,-0.122,-0.1109,-0.092,-0.0789,-0.0652,-0.0504,-0.0389,-0.0266,-0.0104,0.0148,0.0272,0.0437,0.0477,0.0505,0.0508,0.0378,0.0436,0.0423,0.0153,0.0075,0.0087,0.0001,0.0323,0.0323,0.0323,0.0323,0.0323,-0.1149,-0.1039,-0.089,-0.0709,-0.0574,-0.0406,-0.0285,-0.0145,0.0049,0.0259,0.0369,0.0505,0.0517,0.0515,0.0524,0.0439,0.0442,0.0371,0.0372,0.0368,0.0246,0.0142,0.0427,0.0428,0.0428,0.0428,0.0429,0,-0.0974,-0.0856,-0.068,-0.0464,-0.0298,-0.0276,-0.0083,0.0013,0.0217,0.0355,0.0504,0.0539,0.0541,0.0497,0.0406,0.0366,0.0332,0.0353,0.0303,0.0314,0.0315,0.0162,0.0321,0.0321,0.0321,0.0321,0.0321,0.0321,-0.0862,-0.0656,-0.0564,-0.0249,-0.0124,0.0059,0.015,0.0251,0.0332,0.0459,0.048,0.0488,0.0452,0.0394,0.0333,0.0319,0.0306,0.0295,0.0332,0.0287,0.0287,0.0287,0.0135,0.0286,0.0286,0.0299,0.0299,0.0299]}],[{"header":{"parameterUnit":"m.s-1","parameterCategory":2,"la1":30.2991,"la2":30.254,"lo1":-89.0895,"lo2":-89.0444,"dy":0.0017,"dx":0.0017,"nx":28,"ny":28,"refTime":"2024-08-06T03:00:00:Z","depth":"2","parameterNumber":2,"parameterNumberName":"U-component_of_CURRENTS"},"data":[0,0,0,0,0,0,0,0,0,0,0,0,0,0,0,0,0,0,0,0,0,0,0,0,0,0,0,0,0,0,0,0,0,0,0,0,0,0,0,0,0,0,0,0,0,0,0,0,0,0,0,0,0,0,0,0,0,0,0.0875,0.0875,0,0.0886,0.0886,0.0887,0.0916,0.0917,0.0917,0.0918,0.0951,0.0952,0.0952,0,0,0,0,0,0,0,0,0,0,0,0,0,0.0888,0.0887,0.0875,0.0875,0.0874,0.0886,0.0886,0.0887,0.0916,0.0917,0.0917,0.0918,0.0951,0.0952,0.0952,0,0,0,0,0,0,0,0,0,0,0,0,0,0.0891,0.0887,0.0875,0.0889,0.089,0.0886,0.0886,0.0887,0.0916,0.0917,0.0917,0.0918,0.0951,0.0952,0.0952,0.0944,0,0,0.0955,0.0955,0,0,0,0,0,0,0,0,0.0891,0.0891,0.0887,0.0888,0.0889,0.0898,0.0903,0.0906,0.0916,0.0909,0.0918,0.0918,0.0934,0.0936,0.094,0.0946,0.0947,0.0955,0.0955,0.0956,0.0956,0,0,0,0,0,0,0,0.089,0.089,0.0881,0.0887,0.0888,0.0898,0.0899,0.0904,0.092,0.0909,0.0911,0.0908,0.0935,0.0939,0.0941,0.0948,0.0955,0.0955,0.0956,0.0956,0.0986,0.0986,0,0,0,0,0,0,0.0883,0.089,0.0881,0.0882,0.0889,0.0897,0.0899,0.0897,0.0919,0.0922,0.0908,0.091,0.0937,0.094,0.0942,0.0983,0.0955,0.0956,0.0957,0.0986,0.0986,0.0986,0,0,0,0,0,0,0.0883,0.0882,0.0881,0.0884,0.0885,0.0896,0.0894,0.0897,0.0918,0.0917,0.0922,0.0928,0.0938,0.0941,0.0969,0.0982,0.0957,0.0957,0.0985,0.0986,0.0986,0.1033,0,0,0,0,0,0,0.0884,0.0882,0.0895,0.0884,0.0884,0.089,0.0893,0.0896,0.0913,0.0916,0.0936,0.0938,0.0938,0.0968,0.097,0.0983,0.0958,0.0985,0.0986,0.0986,0.1031,0.1035,0.1038,0,0,0,0,0,0.0884,0.0891,0.0896,0.0895,0.0896,0.089,0.0892,0.0903,0.0914,0.0925,0.0945,0.0939,0.0973,0.097,0.0971,0.0985,0.0985,0.0985,0.0986,0.1029,0.1034,0.1038,0,0,0,0,0,0,0.0906,0.0894,0.0899,0.0904,0.0904,0.0895,0.091,0.0913,0.0936,0.095,0.0951,0.0955,0.0984,0.0975,0.0971,0.0993,0.0974,0.0975,0.1006,0.1011,0.1014,0.1026,0.0958,0,0,0,0,0,0.0914,0.092,0.0907,0.0916,0.0917,0.0918,0.0924,0.0928,0.0937,0.0949,0.0962,0.0974,0.0984,0.0992,0.1001,0.1015,0.1034,0.1021,0.1025,0.1028,0.1037,0.1081,0.1091,0.0989,0.0989,0.0989,0,0,0.0924,0.0921,0.0925,0.0922,0.0927,0.093,0.0925,0.0937,0.0948,0.0948,0.0985,0.0994,0.0992,0.1013,0.1023,0.1011,0.1068,0.1029,0.1032,0.104,0.1083,0.1093,0.1103,0.099,0.0989,0.0989,0,0,0.0932,0.0946,0.0946,0.095,0.0955,0.0956,0.0961,0.0964,0.098,0.1008,0.101,0.103,0.1048,0.1047,0.1048,0.1074,0.109,0.1073,0.1101,0.1143,0.1153,0.1161,0.1208,0.122,0.1071,0.1071,0.1071,0,0.0948,0.0942,0.0948,0.095,0.0957,0.0968,0.097,0.0986,0.1002,0.101,0.1029,0.1057,0.1063,0.1072,0.1091,0.1084,0.1118,0.1086,0.1151,0.1159,0.1167,0.1213,0.1226,0.1073,0.1073,0.1073,0.1072,0,0.0936,0.0951,0.0956,0.0963,0.0975,0.0982,0.0995,0.1019,0.1044,0.1049,0.1082,0.11,0.1111,0.1116,0.1121,0.1163,0.1175,0.1157,0.1145,0.1181,0.1226,0.1239,0.1077,0.1076,0.1075,0.1074,0,0,0.0908,0.0941,0.0944,0.0949,0.0982,0.0977,0.1018,0.103,0.1036,0.1084,0.1098,0.1137,0.1148,0.1149,0.1152,0.1197,0.1291,0.1213,0.1214,0.127,0.1408,0.1197,0.1191,0.1298,0.13,0.1301,0.1422,0,0.0895,0.09,0.0927,0.094,0.0936,0.0979,0.1,0.1022,0.1054,0.1076,0.1112,0.1131,0.1157,0.1169,0.1222,0.127,0.1326,0.1261,0.1356,0.1358,0.1174,0.1197,0.1113,0.1193,0.1434,0.1436,0.1438,0,0.0852,0.0864,0.0875,0.0905,0.0908,0.0928,0.0956,0.098,0.1024,0.1051,0.1097,0.1123,0.1197,0.1211,0.1342,0.1309,0.1372,0.1415,0.1419,0.1214,0.1169,0.1193,0.1207,0.1459,0.1457,0.1456,0.1454,0,0.078,0.0818,0.0827,0.0839,0.088,0.09,0.0928,0.0967,0.0991,0.1043,0.1073,0.1143,0.1198,0.1294,0.1375,0.1388,0.1508,0.1523,0.1395,0.1383,0.1319,0.1293,0.1622,0.1622,0.1622,0.1621,0.1621,0,0.0724,0.0726,0.0796,0.0793,0.0809,0.0849,0.0871,0.0908,0.0961,0.1001,0.1059,0.1111,0.1232,0.1302,0.1385,0.1403,0.1516,0.1404,0.1392,0.1328,0.1302,0.1531,0.1519,0.1626,0.1625,0.1624,0.1623,0,0.0636,0.0679,0.0698,0.0756,0.0777,0.0791,0.0865,0.0885,0.093,0.0997,0.1026,0.1122,0.1206,0.1268,0.1407,0.1386,0.1433,0.141,0.131,0.1278,0.1299,0.1289,0.1319,0.1312,0.1307,0.1302,0.1298,0,0.0588,0.0591,0.0677,0.0717,0.0755,0.079,0.0828,0.0876,0.0921,0.1012,0.1057,0.1122,0.1161,0.121,0.1198,0.1228,0.132,0.1123,0.1095,0.1279,0.1266,0.1264,0.1261,0.1077,0.1072,0.1067,0.1064,0,0.0526,0.0577,0.0617,0.0701,0.0759,0.0806,0.087,0.0889,0.0965,0.0998,0.1067,0.1086,0.1085,0.1034,0.097,0.0987,0.1095,0.1023,0.1287,0.1099,0.1041,0.103,0.1038,0.1024,0.1028,0.1031,0.1033,0.1035,0.0518,0.0552,0.0644,0.0717,0.0792,0.0859,0.0862,0.0914,0.0953,0.0978,0.1032,0.099,0.0967,0.0806,0.0776,0.0722,0.0815,0.0799,0.082,0.0844,0.0726,0.0653,0.0546,0.0547,0.0548,0.0549,0.055,0,0.0531,0.0595,0.0662,0.0774,0.0847,0.0877,0.0925,0.0893,0.0907,0.0903,0.0894,0.0766,0.0679,0.0655,0.0514,0.0452,0.0533,0.0426,0.057,0.0606,0.0639,0.0518,0.028,0.028,0.0279,0.0279,0,0,0.0554,0.0629,0.0668,0.081,0.088,0.0927,0.0928,0.0855,0.0811,0.0734,0.0669,0.0655,0.0633,0.0477,0.0425,0.034,0.0485,0.0312,0.0525,0.0733,0.0766,0.0838,0.0685,0,0,0,0,0]},{"header":{"parameterUnit":"m.s-1","parameterCategory":2,"la1":30.2991,"la2":30.254,"lo1":-89.0895,"lo2":-89.0444,"dy":0.0017,"dx":0.0017,"nx":28,"ny":28,"refTime":"2024-08-06T03:00:00:Z","depth":"2","parameterNumber":3,"parameterNumberName":"V-component_of_CURRENTS"},"data":[0,0,0,0,0,0,0,0,0,0,0,0,0,0,0,0,0,0,0,0,0,0,0,0,0,0,0,0,0,0,0,0,0,0,0,0,0,0,0,0,0,0,0,0,0,0,0,0,0,0,0,0,0,0,0,0,0,0,0.0391,0.0392,0,0.0417,0.0417,0.0416,0.0379,0.0378,0.0377,0.0377,0.0346,0.0346,0.0346,0,0,0,0,0,0,0,0,0,0,0,0,0,0.0316,0.0317,0.0391,0.0392,0.0393,0.0417,0.0417,0.0416,0.0379,0.0378,0.0377,0.0376,0.0346,0.0346,0.0346,0,0,0,0,0,0,0,0,0,0,0,0,0,0.0341,0.0317,0.0391,0.0381,0.038,0.0417,0.0417,0.0416,0.0379,0.0378,0.0377,0.0376,0.0346,0.0346,0.0346,0.0372,0,0,0.0346,0.0346,0,0,0,0,0,0,0,0,0.0339,0.0343,0.0381,0.0381,0.0381,0.0398,0.0379,0.0401,0.038,0.0375,0.0377,0.0375,0.0363,0.0361,0.0363,0.0371,0.037,0.0346,0.0346,0.0346,0.0346,0,0,0,0,0,0,0,0.0338,0.0342,0.0396,0.0382,0.0382,0.0377,0.0378,0.0383,0.0371,0.0375,0.0374,0.0385,0.0361,0.0363,0.0362,0.0369,0.0346,0.0346,0.0346,0.0346,0.0324,0.0324,0,0,0,0,0,0,0.0346,0.034,0.0396,0.0398,0.0362,0.038,0.0381,0.039,0.0372,0.037,0.0386,0.0383,0.0363,0.0362,0.036,0.0334,0.0346,0.0346,0.0346,0.0325,0.0324,0.0323,0,0,0,0,0,0,0.0344,0.0351,0.0395,0.0373,0.0379,0.0383,0.0392,0.0391,0.0371,0.0382,0.0377,0.0366,0.0362,0.036,0.035,0.0334,0.0346,0.0346,0.0325,0.0324,0.0324,0.0316,0,0,0,0,0,0,0.0342,0.035,0.0343,0.0374,0.0381,0.0401,0.0394,0.0393,0.0384,0.038,0.0364,0.0361,0.0361,0.035,0.035,0.0334,0.0346,0.0326,0.0325,0.0324,0.0317,0.0315,0.0314,0,0,0,0,0,0.0339,0.0348,0.0342,0.0348,0.0376,0.0402,0.0404,0.0399,0.0384,0.0375,0.0366,0.036,0.0342,0.035,0.035,0.0334,0.0327,0.0325,0.0324,0.0318,0.0316,0.0314,0,0,0,0,0,0,0.0313,0.0346,0.034,0.0357,0.0369,0.0397,0.0387,0.039,0.0376,0.0358,0.0362,0.036,0.0344,0.0341,0.0349,0.0323,0.033,0.0328,0.0325,0.0323,0.0321,0.0317,0.0346,0,0,0,0,0,0.0306,0.0314,0.0344,0.0352,0.0352,0.0363,0.0367,0.0365,0.037,0.0361,0.0356,0.0344,0.0343,0.0333,0.0331,0.0322,0.0337,0.0308,0.0306,0.0305,0.03,0.0317,0.0317,0.0319,0.0319,0.0319,0,0,0.0297,0.0318,0.0319,0.0345,0.0345,0.0355,0.0359,0.0358,0.036,0.0361,0.0344,0.034,0.0341,0.033,0.0321,0.0321,0.0313,0.0303,0.0302,0.0298,0.0316,0.0316,0.0316,0.0318,0.0318,0.0318,0,0,0.0293,0.0296,0.0298,0.0308,0.0316,0.033,0.0327,0.034,0.033,0.0326,0.0326,0.0315,0.0307,0.0309,0.031,0.0296,0.0307,0.0285,0.0268,0.0285,0.0285,0.0285,0.0315,0.0318,0.0279,0.0279,0.0278,0,0.0272,0.0288,0.0301,0.0308,0.0311,0.0318,0.0317,0.0322,0.033,0.0326,0.0311,0.0309,0.03,0.0307,0.029,0.0292,0.0307,0.0279,0.0284,0.0284,0.0285,0.0315,0.0318,0.0278,0.0278,0.0278,0.0278,0,0.0284,0.0278,0.0278,0.0288,0.0294,0.0292,0.0309,0.0301,0.0289,0.03,0.029,0.0289,0.0286,0.0278,0.0274,0.0273,0.0285,0.0286,0.0293,0.0284,0.0316,0.032,0.0277,0.0277,0.0278,0.0278,0,0,0.0268,0.0281,0.0274,0.0264,0.0278,0.0285,0.0285,0.0294,0.0291,0.0286,0.0293,0.0275,0.027,0.027,0.027,0.0272,0.0283,0.0268,0.0269,0.0304,0.0329,0.0271,0.027,0.0285,0.0285,0.0285,0.0354,0,0.0258,0.0261,0.0276,0.0262,0.0256,0.0263,0.0271,0.0278,0.0277,0.0287,0.0289,0.0295,0.0273,0.0268,0.0265,0.0292,0.029,0.0265,0.0325,0.0327,0.0282,0.0271,0.0256,0.0308,0.0358,0.0358,0.0359,0,0.0261,0.0258,0.0246,0.024,0.0237,0.0237,0.0235,0.0243,0.0267,0.0268,0.0275,0.0291,0.0306,0.0282,0.0316,0.0302,0.0299,0.0312,0.0316,0.0264,0.0275,0.0322,0.0314,0.0365,0.0365,0.0364,0.0364,0,0.0243,0.0235,0.022,0.0218,0.0222,0.0209,0.0209,0.0225,0.0239,0.0259,0.0285,0.0302,0.0329,0.0333,0.0351,0.0333,0.0396,0.0384,0.0334,0.0332,0.033,0.0325,0.0385,0.0385,0.0385,0.0385,0.0385,0,0.0235,0.0217,0.0203,0.019,0.0169,0.018,0.0173,0.0176,0.0214,0.0256,0.027,0.0324,0.0338,0.0382,0.0375,0.0375,0.0418,0.0327,0.0337,0.0326,0.032,0.0374,0.0372,0.0388,0.0387,0.0387,0.0386,0,0.0217,0.0214,0.0184,0.0163,0.0157,0.0135,0.0152,0.017,0.0199,0.0261,0.0279,0.0355,0.041,0.0429,0.0459,0.041,0.0415,0.0397,0.0384,0.0388,0.0336,0.0332,0.0347,0.0346,0.0344,0.0343,0.0342,0,0.0213,0.0197,0.0151,0.0144,0.0126,0.0111,0.0125,0.0148,0.019,0.0295,0.0346,0.0414,0.0476,0.0499,0.0442,0.042,0.0424,0.035,0.0284,0.0319,0.0328,0.0327,0.0326,0.0302,0.0301,0.03,0.0299,0,0.0194,0.017,0.0147,0.0127,0.0119,0.0126,0.0149,0.0188,0.0257,0.0328,0.0447,0.05,0.0513,0.0485,0.0412,0.0382,0.0347,0.0323,0.0394,0.0288,0.0274,0.0284,0.0285,0.029,0.0291,0.0292,0.0292,0.0293,0.0174,0.0154,0.0134,0.0122,0.0119,0.0157,0.0186,0.0252,0.0331,0.044,0.0493,0.0548,0.051,0.0401,0.036,0.028,0.0281,0.0231,0.0236,0.0241,0.0197,0.0178,0.0171,0.0171,0.0171,0.0172,0.0172,0,0.0167,0.0159,0.0149,0.014,0.0162,0.0158,0.0228,0.0277,0.0383,0.0443,0.0516,0.047,0.0432,0.0391,0.0254,0.017,0.0183,0.0149,0.0189,0.0197,0.0204,0.016,0.0124,0.0123,0.0123,0.0123,0,0,0.0167,0.0162,0.0165,0.0194,0.0201,0.0239,0.0286,0.0345,0.0388,0.0445,0.0457,0.0471,0.0425,0.0319,0.0246,0.018,0.0198,0.0161,0.0201,0.0262,0.0271,0.0248,0.0187,0,0,0,0,0]}],[{"header":{"parameterUnit":"m.s-1","parameterCategory":2,"la1":30.2991,"la2":30.254,"lo1":-89.0895,"lo2":-89.0444,"dy":0.0017,"dx":0.0017,"nx":28,"ny":28,"refTime":"2024-08-06T03:00:00:Z","depth":"4","parameterNumber":2,"parameterNumberName":"U-component_of_CURRENTS"},"data":[0,0,0,0,0,0,0,0,0,0,0,0,0,0,0,0,0,0,0,0,0,0,0,0,0,0,0,0,0,0,0,0,0,0,0,0,0,0,0,0,0,0,0,0,0,0,0,0,0,0,0,0,0,0,0,0,0,0,-0.0205,-0.0205,0,-0.0167,-0.0166,-0.0166,-0.0154,-0.0154,-0.0154,-0.0154,-0.0154,-0.0154,-0.0154,0,0,0,0,0,0,0,0,0,0,0,0,0,-0.0272,-0.0271,-0.0205,-0.0205,-0.0204,-0.0167,-0.0166,-0.0166,-0.0154,-0.0154,-0.0154,-0.0154,-0.0154,-0.0154,-0.0154,0,0,0,0,0,0,0,0,0,0,0,0,0,-0.024,-0.027,-0.0205,-0.0193,-0.0191,-0.0167,-0.0166,-0.0166,-0.0154,-0.0154,-0.0154,-0.0154,-0.0154,-0.0154,-0.0154,-0.0149,0,0,-0.0153,-0.0153,0,0,0,0,0,0,0,0,-0.0241,-0.0237,-0.0195,-0.0194,-0.0192,-0.0165,-0.019,-0.0162,-0.0153,-0.0169,-0.0154,-0.0154,-0.0161,-0.016,-0.0153,-0.0149,-0.0149,-0.0153,-0.0153,-0.0153,-0.0153,0,0,0,0,0,0,0,-0.0244,-0.0239,-0.0191,-0.0195,-0.0193,-0.0191,-0.0186,-0.0184,-0.0165,-0.0167,-0.0166,-0.0161,-0.016,-0.0153,-0.0153,-0.0149,-0.0153,-0.0153,-0.0153,-0.0153,-0.0099,-0.0098,0,0,0,0,0,0,-0.0247,-0.0241,-0.0192,-0.0189,-0.0217,-0.0189,-0.0185,-0.0174,-0.0164,-0.0163,-0.0161,-0.016,-0.0153,-0.0153,-0.0153,-0.0125,-0.0153,-0.0153,-0.0153,-0.0101,-0.0099,-0.0098,0,0,0,0,0,0,-0.0248,-0.0242,-0.0193,-0.0214,-0.0208,-0.0188,-0.0176,-0.0173,-0.0161,-0.0159,-0.0158,-0.0152,-0.0153,-0.0153,-0.0143,-0.0126,-0.0153,-0.0153,-0.0102,-0.01,-0.0098,-0.0085,0,0,0,0,0,0,-0.025,-0.0243,-0.0236,-0.0214,-0.0207,-0.0172,-0.0176,-0.0172,-0.0158,-0.0157,-0.0151,-0.0151,-0.0153,-0.0143,-0.0143,-0.0126,-0.0152,-0.0104,-0.0101,-0.0099,-0.0087,-0.0082,-0.0079,0,0,0,0,0,-0.0252,-0.024,-0.0235,-0.0229,-0.0197,-0.0172,-0.0167,-0.0155,-0.0157,-0.0147,-0.0143,-0.0151,-0.0126,-0.0142,-0.0142,-0.0125,-0.0105,-0.0102,-0.0099,-0.0089,-0.0083,-0.0079,0,0,0,0,0,0,-0.0261,-0.0237,-0.0231,-0.0211,-0.0191,-0.0169,-0.0159,-0.0152,-0.014,-0.0142,-0.0143,-0.0143,-0.0128,-0.0124,-0.0141,-0.0099,-0.0113,-0.011,-0.0105,-0.01,-0.0096,-0.0073,-0.0152,0,0,0,0,0,-0.0261,-0.0246,-0.0222,-0.0205,-0.0196,-0.0178,-0.0167,-0.0157,-0.0144,-0.0139,-0.0135,-0.0125,-0.0114,-0.0107,-0.01,-0.0081,-0.0065,-0.0065,-0.0061,-0.0058,-0.0036,0.0016,0.0027,-0.0088,-0.0088,-0.0088,0,0,-0.0261,-0.0244,-0.0237,-0.0206,-0.0192,-0.0177,-0.0171,-0.0151,-0.0139,-0.0142,-0.0126,-0.0118,-0.0107,-0.0086,-0.0077,-0.0081,-0.0023,-0.0054,-0.0052,-0.0031,0.0021,0.0032,0.0042,-0.0086,-0.0086,-0.0086,0,0,-0.0257,-0.0237,-0.0228,-0.021,-0.0186,-0.0172,-0.0165,-0.0142,-0.0131,-0.0113,-0.011,-0.0084,-0.0076,-0.0053,-0.0043,-0.0009,-0.0008,-0.001,0.0033,0.0083,0.0093,0.0102,0.0106,0.0115,-0.0002,-0.0002,-0.0002,0,-0.026,-0.0244,-0.0221,-0.0207,-0.0195,-0.017,-0.0161,-0.0141,-0.0117,-0.0099,-0.0107,-0.0056,-0.0053,-0.0009,0.0008,0.0,0.0016,0.0007,0.0088,0.0098,0.0107,0.0109,0.0119,-0.0001,-0.0001,-0.0001,-0.0001,0,-0.025,-0.0239,-0.023,-0.0207,-0.0188,-0.0173,-0.0145,-0.0123,-0.0109,-0.0083,-0.0038,-0.0019,0.0025,0.0024,0.0026,0.0096,0.0078,0.0079,0.0072,0.0119,0.0118,0.0128,0.0001,0.0,0.0,-0.0,0,0,-0.0261,-0.0232,-0.0231,-0.0225,-0.0189,-0.0173,-0.0144,-0.0104,-0.0067,-0.0039,0.0016,0.0046,0.0083,0.0099,0.0112,0.0155,0.0216,0.0152,0.0154,0.015,0.03,0.0237,0.0242,0.0233,0.0236,0.0238,0.0261,0,-0.0267,-0.0253,-0.0231,-0.0217,-0.021,-0.0173,-0.0141,-0.0097,-0.0052,0.0012,0.0055,0.0117,0.0104,0.0146,0.0186,0.0219,0.025,0.0208,0.0262,0.0264,0.0199,0.0255,0.0246,0.0269,0.0271,0.0273,0.0274,0,-0.0271,-0.0263,-0.0256,-0.0223,-0.0213,-0.019,-0.0124,-0.0082,0.0015,0.006,0.014,0.0182,0.0265,0.0249,0.0328,0.0303,0.0313,0.0322,0.0323,0.0276,0.0223,0.0223,0.0293,0.0291,0.029,0.0289,0.0288,0,-0.0302,-0.0281,-0.0279,-0.0269,-0.0223,-0.02,-0.0152,-0.0064,-0.0002,0.0126,0.0191,0.0273,0.0341,0.0378,0.0388,0.0382,0.0449,0.0441,0.0381,0.0374,0.0414,0.0405,0.05,0.05,0.05,0.05,0.05,0,-0.0316,-0.0319,-0.0291,-0.0287,-0.0253,-0.0207,-0.013,-0.0064,0.0056,0.014,0.0236,0.0309,0.0385,0.042,0.0419,0.0423,0.0475,0.0407,0.0395,0.0413,0.0404,0.0419,0.0409,0.0501,0.05,0.05,0.05,0,-0.0348,-0.0336,-0.0331,-0.029,-0.0266,-0.023,-0.0106,-0.0037,0.0077,0.0194,0.0246,0.0368,0.0425,0.044,0.0493,0.0463,0.0469,0.0445,0.0436,0.0419,0.0352,0.0343,0.042,0.0418,0.0417,0.0415,0.0415,0,-0.0359,-0.0365,-0.0332,-0.0305,-0.0281,-0.0209,-0.0144,-0.0026,0.0047,0.021,0.0254,0.036,0.0417,0.0452,0.0459,0.0449,0.043,0.0423,0.0426,0.0373,0.0353,0.0346,0.0339,0.0412,0.0412,0.0412,0.0411,0,-0.0377,-0.0374,-0.0361,-0.0312,-0.0257,-0.0184,-0.0095,-0.0041,0.0091,0.0172,0.0296,0.0357,0.0407,0.0443,0.0425,0.041,0.0436,0.0409,0.0413,0.0415,0.0365,0.0345,0.034,0.0407,0.0407,0.0408,0.0408,0,-0.0381,-0.0374,-0.0351,-0.03,-0.024,-0.0164,-0.0113,-0.0018,0.0073,0.0223,0.0246,0.0348,0.0412,0.0419,0.0397,0.0385,0.0389,0.0378,0.0383,0.0388,0.0362,0.0292,0.0322,0,0,0,0,0,-0.037,-0.0352,-0.0322,-0.0262,-0.021,-0.0168,-0.0082,-0.0033,0.0057,0.014,0.0205,0.0254,0.031,0.0352,0.0332,0.0341,0.0354,0.0312,0.0335,0.0381,0.0386,0.0354,0,0,0,0,0,0,-0.0356,-0.034,-0.0325,-0.0244,-0.0197,-0.0125,-0.0069,-0.0011,0.0038,0.0125,0.0162,0.0219,0.0267,0.0318,0.0326,0.0326,0.033,0.0349,0.0347,0.0378,0.0382,0.0387,0.0356,0,0,0,0,0]},{"header":{"parameterUnit":"m.s-1","parameterCategory":2,"la1":30.2991,"la2":30.254,"lo1":-89.0895,"lo2":-89.0444,"dy":0.0017,"dx":0.0017,"nx":28,"ny":28,"refTime":"2024-08-06T03:00:00:Z","depth":"4","parameterNumber":3,"parameterNumberName":"V-component_of_CURRENTS"},"data":[0,0,0,0,0,0,0,0,0,0,0,0,0,0,0,0,0,0,0,0,0,0,0,0,0,0,0,0,0,0,0,0,0,0,0,0,0,0,0,0,0,0,0,0,0,0,0,0,0,0,0,0,0,0,0,0,0,0,0.0488,0.0489,0,0.0513,0.0513,0.0513,0.052,0.052,0.052,0.052,0.0533,0.0533,0.0534,0,0,0,0,0,0,0,0,0,0,0,0,0,0.0462,0.0463,0.0488,0.0489,0.0489,0.0513,0.0513,0.0513,0.052,0.052,0.052,0.052,0.0533,0.0533,0.0534,0,0,0,0,0,0,0,0,0,0,0,0,0,0.0478,0.0463,0.0488,0.0496,0.0497,0.0513,0.0513,0.0514,0.052,0.052,0.052,0.052,0.0533,0.0533,0.0534,0.0539,0,0,0.0536,0.0536,0,0,0,0,0,0,0,0,0.0477,0.0479,0.0494,0.0495,0.0497,0.0514,0.0509,0.0522,0.052,0.051,0.052,0.052,0.0526,0.0527,0.0531,0.054,0.054,0.0536,0.0536,0.0536,0.0536,0,0,0,0,0,0,0,0.0476,0.0478,0.0497,0.0495,0.0496,0.0504,0.0505,0.0511,0.0518,0.0511,0.0512,0.0516,0.0526,0.053,0.0531,0.0541,0.0536,0.0536,0.0536,0.0537,0.0579,0.058,0,0,0,0,0,0,0.0474,0.0477,0.0496,0.0498,0.0487,0.0504,0.0506,0.0508,0.0518,0.052,0.0516,0.0516,0.0529,0.0531,0.0532,0.0568,0.0536,0.0537,0.0537,0.0578,0.0579,0.058,0,0,0,0,0,0,0.0473,0.0476,0.0495,0.0489,0.0492,0.0505,0.0507,0.0508,0.0521,0.0522,0.0523,0.0528,0.0529,0.0531,0.0549,0.0567,0.0537,0.0538,0.0578,0.0579,0.058,0.0621,0,0,0,0,0,0,0.0473,0.0475,0.0483,0.0489,0.0492,0.0515,0.0507,0.0509,0.0524,0.0525,0.0533,0.0533,0.0529,0.0548,0.0549,0.0567,0.0538,0.0577,0.0578,0.0579,0.0619,0.0624,0.0628,0,0,0,0,0,0.0471,0.0487,0.0483,0.0486,0.05,0.0516,0.0519,0.0527,0.0525,0.0536,0.0541,0.0533,0.0558,0.0549,0.0551,0.0569,0.0576,0.0578,0.0579,0.0617,0.0623,0.0627,0,0,0,0,0,0,0.0491,0.0489,0.0485,0.0502,0.0511,0.0518,0.0535,0.0533,0.0546,0.0549,0.0545,0.0546,0.0567,0.0563,0.0553,0.0585,0.0565,0.0567,0.0593,0.0599,0.0603,0.0591,0.0539,0,0,0,0,0,0.0495,0.0502,0.0503,0.052,0.0525,0.0529,0.0539,0.0541,0.055,0.0556,0.0563,0.0568,0.0574,0.0582,0.0587,0.0607,0.0555,0.062,0.0624,0.0628,0.0619,0.0546,0.0543,0.0586,0.0586,0.0586,0,0,0.0509,0.051,0.0515,0.0524,0.0532,0.0546,0.0535,0.0555,0.0568,0.0555,0.0584,0.0584,0.0582,0.0604,0.0613,0.0605,0.0589,0.063,0.0633,0.0622,0.0548,0.0543,0.0539,0.0587,0.0587,0.0587,0,0,0.0538,0.0539,0.0551,0.0558,0.0569,0.0571,0.0577,0.0588,0.0596,0.0616,0.061,0.062,0.0637,0.0638,0.0638,0.067,0.0612,0.0677,0.0693,0.0624,0.0619,0.0614,0.0541,0.0529,0.0682,0.0682,0.0682,0,0.0555,0.0561,0.0561,0.0575,0.0581,0.0583,0.0596,0.061,0.0626,0.0629,0.0632,0.064,0.065,0.0655,0.0675,0.0679,0.0622,0.0675,0.0627,0.0621,0.0615,0.0541,0.0528,0.0684,0.0684,0.0684,0.0684,0,0.0583,0.0592,0.0605,0.0614,0.0626,0.0639,0.0648,0.0663,0.0669,0.0673,0.068,0.0684,0.068,0.0696,0.0701,0.0677,0.0644,0.0636,0.0609,0.0613,0.0536,0.052,0.0688,0.0687,0.0686,0.0686,0,0,0.0589,0.0617,0.0617,0.0618,0.064,0.0644,0.0675,0.0684,0.0685,0.0706,0.0691,0.0726,0.0713,0.0712,0.0712,0.0673,0.06,0.0644,0.0639,0.0563,0.0428,0.0447,0.0432,0.0573,0.0571,0.0569,0.039,0,0.0602,0.0624,0.0638,0.0656,0.0659,0.0672,0.0697,0.071,0.071,0.0703,0.0701,0.0697,0.0723,0.0714,0.068,0.0616,0.0562,0.0648,0.0443,0.0437,0.0445,0.0416,0.0562,0.0379,0.0375,0.0372,0.037,0,0.0601,0.0612,0.0633,0.0648,0.0653,0.068,0.0682,0.0706,0.0709,0.0703,0.0693,0.0678,0.065,0.0654,0.0535,0.0583,0.0508,0.0456,0.0447,0.0436,0.0428,0.0374,0.0342,0.0344,0.0347,0.0348,0.035,0,0.0562,0.0594,0.0604,0.0612,0.0646,0.0666,0.0696,0.0712,0.0713,0.0699,0.0671,0.0637,0.0596,0.0512,0.0432,0.0465,0.0265,0.0291,0.023,0.023,0.0247,0.0254,0.0174,0.0174,0.0175,0.0175,0.0176,0,0.0541,0.0542,0.0593,0.0596,0.0619,0.0654,0.067,0.0694,0.0691,0.0662,0.0672,0.061,0.0552,0.0446,0.0382,0.0254,0.0216,0.0214,0.0181,0.0271,0.0283,0.0235,0.0245,0.0168,0.017,0.0171,0.0172,0,0.0485,0.0519,0.0528,0.0578,0.0604,0.0622,0.0675,0.0668,0.0681,0.0628,0.0618,0.0559,0.0438,0.0361,0.0202,0.0181,0.0066,0.0023,0.0103,0.008,0.0088,0.0102,-0.0058,-0.0059,-0.006,-0.0061,-0.0061,0,0.0458,0.0459,0.0514,0.0536,0.0568,0.0608,0.0632,0.0666,0.0632,0.0579,0.0521,0.0428,0.0376,0.0165,0.0108,-0.0026,-0.0022,-0.008,0.0041,0.0078,0.0061,0.0077,0.0091,-0.0063,-0.0063,-0.0063,-0.0063,0,0.04,0.0425,0.0434,0.0488,0.0524,0.0542,0.0565,0.0539,0.0531,0.0531,0.0423,0.0364,0.0224,0.0136,0.0032,-0.0055,-0.0029,-0.0088,-0.0085,0.0028,0.0071,0.0059,0.0074,-0.0066,-0.0065,-0.0065,-0.0065,0,0.0355,0.0348,0.0379,0.0419,0.0465,0.0466,0.0491,0.0451,0.0436,0.0383,0.0332,0.025,0.0204,0.0113,0.0005,-0.0058,-0.0042,-0.0029,-0.0028,-0.0026,0.0073,0.0139,-0.0027,0,0,0,0,0,0.0309,0.0295,0.0317,0.0346,0.0391,0.0423,0.043,0.0435,0.0415,0.0334,0.0342,0.0224,0.0126,0.0082,0.0017,0.0001,-0.0057,-0.0073,-0.0043,-0.0081,-0.0078,0.0041,0,0,0,0,0,0,0.0273,0.0278,0.0282,0.0284,0.0303,0.0329,0.0344,0.0335,0.0287,0.0278,0.0218,0.0221,0.0113,0.0149,0.0015,-0.0002,0.0015,-0.0115,-0.0115,-0.0082,-0.008,-0.0077,0.0045,0,0,0,0,0]}]]